#timestamp,LO_Frequency,Hit,StdDev 
1687334415.8,286046999.7,N
1687334435.6,286047000.3,N
1687334455.4,286047001.0,N
1687334475.3,286046999.9,N
1687334495.1,286047000.2,N
1687334515.9,286047000.3,N
1687334535.7,286047000.1,N
1687334555.5,286046998.5,N
1687334575.4,286047000.5,N
1687334595.2,286047001.0,N
1687334615.1,286047000.3,N
1687334616.0,286047000.3,N
1687334635.8,286046998.1,N
1687334655.6,286046999.9,N
1687334675.5,286046999.7,N
1687334695.3,286047002.8,N
1687334715.2,286046999.9,N
1687334735.9,286047000.1,N
1687334755.7,286046999.7,N
1687334775.6,286046999.7,N
1687334795.4,286047000.7,N
1687334815.2,286047001.2,N
1687334835.1,286047000.8,N
1687334836.0,286047000.8,N
1687334855.8,286047000.0,N
1687334875.7,286047000.5,N
1687334895.5,286046999.9,N
1687334915.4,286047002.4,N
1687334935.2,286047002.4,N
1687334955.0,286047002.0,N
1687334955.9,286047002.0,N
1687334975.8,286046999.8,N
1687334995.6,286047002.7,N
1687335015.4,286047000.0,N
1687335035.3,286047002.3,N
1687335055.1,286047002.6,N
1687335075.9,286047001.8,N
1687335095.7,286047002.6,N
1687335115.5,286047002.1,N
1687335135.4,286047001.5,N
1687335155.3,286047001.6,N
1687335175.1,286047002.1,N
1687335195.9,286047001.6,N
1687335215.7,286047001.9,N
1687335235.5,286047002.5,N
1687335255.4,286047002.5,N
1687335275.2,286047001.5,N
1687335295.1,286047002.2,N
1687335296.0,286047002.2,N
1687335315.8,286047001.8,N
1687335335.6,286047004.3,Y
1687335355.5,286046999.8,P
1687335375.3,286047000.3,N
1687335395.2,286047001.1,N
1687335415.9,286047000.7,N
1687335435.7,286046998.4,N
1687335455.6,286047000.7,N
1687335475.4,286047000.9,N
1687335495.2,286046998.6,N
1687335515.1,286047001.1,N
1687335516.0,286047001.1,N
1687335535.8,286046999.9,N
1687335555.7,286047000.3,N
1687335575.5,286047000.0,N
1687335595.3,286047000.6,N
1687335615.2,286046999.9,N
1687335635.0,286047000.4,N
1687335635.9,286047000.4,N
1687335655.8,286047000.7,N
1687335675.6,286046998.2,N
1687335695.4,286046998.5,N
1687335715.3,286046999.0,N
1687335735.1,286046998.6,N
1687335755.9,286047001.2,N
1687335775.7,286046998.5,N
1687335795.5,286046998.3,N
1687335815.4,286047000.6,N
1687335835.2,286047000.8,N
1687335855.0,286046998.3,N
1687335855.9,286046998.3,N
1687335875.8,286047001.2,N
1687335895.6,286046998.5,N
1687335915.5,286047000.3,N
1687335935.3,286047000.6,N
1687335955.1,286047000.2,N
1687335975.9,286047002.8,N
1687335995.7,286047002.5,N
1687336015.5,286047000.1,N
1687336035.4,286047002.8,N
1687336055.2,286047000.2,N
1687336075.1,286047000.1,N
1687336076.0,286047000.1,N
1687336095.8,286047001.7,N
1687336115.6,286046998.2,N
1687336135.5,286046998.4,N
1687336155.3,286046998.6,N
1687336175.1,286046998.6,N
1687336195.9,286047000.6,N
1687336215.7,286047001.0,N
1687336235.6,286047001.0,N
1687336255.4,286047002.1,N
1687336275.2,286046999.4,N
1687336295.1,286046996.7,N
1687336296.0,286046996.7,N
1687336315.8,286046997.1,N
1687336335.6,286047000.4,N
1687336355.5,286047002.1,N
1687336375.3,286046999.1,N
1687336395.2,286046999.0,N
1687336415.9,286046997.2,N
1687336435.7,286046996.0,N
1687336455.6,286046995.1,N
1687336475.4,286046995.7,N
1687336495.2,286046995.2,N
1687336515.1,286046993.8,N
1687336516.0,286046993.8,N
1687336535.8,286046993.8,N
1687336555.7,286046993.8,N
1687336575.5,286046994.0,N
1687336595.3,286046993.6,N
1687336615.2,286046993.8,N
1687336635.0,286046994.1,N
1687336635.9,286046994.1,N
1687336655.7,286046993.3,N
1687336675.6,286046994.6,N
1687336695.4,286046995.8,N
1687336715.3,286046995.8,N
1687336735.1,286046991.7,N
1687336736.0,286046991.7,N
1687336755.8,286046992.6,N
1687336775.7,286046990.2,Y
1687336795.5,286046995.9,P
1687336815.3,286046996.0,P
1687336835.2,286046994.6,P
1687336855.0,286046993.5,Y
1687336855.9,286046993.5,P
1687336875.8,286047000.2,N
1687336895.6,286046998.5,N
1687336915.4,286046998.7,N
1687336935.3,286046998.6,N
1687336955.1,286047000.2,N
1687336975.8,286046999.3,N
1687336995.7,286046998.7,N
1687337015.5,286047002.7,N
1687337035.4,286046998.7,N
1687337055.2,286046998.1,N
1687337075.0,286046998.3,N
1687337075.9,286046998.3,N
1687337095.8,286046998.3,N
1687337115.6,286046999.0,N
1687337135.4,286046998.9,N
1687337155.3,286046998.8,N
1687337175.1,286046998.9,N
1687337195.9,286047000.1,N
1687337215.7,286046999.3,N
1687337235.5,286046996.5,N
1687337255.4,286046996.8,N
1687337275.2,286046997.1,N
1687337295.0,286046996.5,N
1687337296.0,286046996.5,N
1687337315.8,286047000.8,N
1687337335.6,286047001.1,N
1687337355.5,286046998.7,N
1687337375.3,286046999.1,N
1687337395.1,286046999.4,N
1687337415.9,286046999.3,N
1687337435.7,286046999.3,N
1687337455.6,286046998.8,N
1687337475.4,286047000.7,N
1687337495.2,286046998.9,N
1687337515.1,286046999.5,N
1687337516.0,286046999.5,N
1687337535.8,286046996.7,N
1687337555.7,286046999.2,N
1687337575.5,286046999.1,N
1687337595.3,286047000.0,N
1687337615.2,286046998.4,N
1687337635.0,286046999.1,N
1687337635.9,286046999.1,N
1687337655.8,286046994.9,Y
1687337675.6,286046997.2,P
1687337695.4,286047000.7,N
1687337715.3,286047000.9,N
1687337735.1,286047000.6,N
1687337755.8,286046998.5,N
1687337775.7,286046997.1,N
1687337795.5,286047000.9,N
1687337815.4,286047000.7,N
1687337835.2,286046998.6,N
1687337855.0,286046998.4,N
1687337855.9,286046998.4,N
1687337875.8,286046998.3,N
1687337895.6,286046997.4,N
1687337915.4,286046997.2,N
1687337935.3,286046998.3,N
1687337955.1,286047000.7,N
1687337975.9,286046999.3,N
1687337995.7,286046997.4,N
